Weather in Londoko

Russia / Jewish Autonomous Oblast     49°00′54″N   131°59′43″E
temp.,
°C
wind,
m/s
gust,
m/s
humid.,
%
clouds,
%
prec.,
mm/h
press.,
hPa
HPBL,
m
22 april, thu
thu2201:00+7ene11480 0.0 102010
04:00+6ene11500 0.0 102010
07:00+6e21480 0.0 102119
10:00+15ese36275 0.0 1020694
13:00+19sse4624100 0.0 10191105
16:00+22s352247 0.0 10171512
19:00+21se233064 0.0 101761
22:00+14nne014692 0.0 101810
23 april, fri
fri2301:00+12nnw1152100 0.0 101910
04:00+11wnw1151100 0.0 101910
07:00+11nw2248100 0.0 102023
10:00+15wnw3543100 0.0 1020499
13:00+16nnw4645100 0.0 10201029
16:00+16wnw574596 0.0 10201261
19:00+11nw594179 0.0 10221124
22:00+8nw5122691 0.0 1023830
24 april, sat
sat2401:00+5nw4934100 0.0 1024433
04:00+2nw353741 0.0 1024249
07:000wnw2547100 0.0 1025253
10:00+6nw47230 0.0 10241136
13:00+10nw69190 0.0 10221882
16:00+10nw711205 0.0 10202479
19:00+9nw513245 0.0 10192842
22:00+5wnw310345 0.0 1019405
25 april, sun
sun2501:00+5wnw5123696 0.0 10181262
04:00+3nw717494 0.0 10172277
07:000nw513440 0.0 10191339
10:00+5nnw48230 0.0 10202170
13:00+8nnw48150 0.0 10202605
16:00+11nnw58120 0.0 10182741
19:00+9nw45180 0.0 10182224
22:00+2wnw22310 0.0 102115
26 april, mon
mon2601:000wnw11375 0.0 102010
04:00−1wnw11395 0.0 102010
07:000wnw1136100 0.0 101928
10:00+9sw122299 0.0 1017492
13:00+13s2321100 0.0 10141603
16:00+14sse4520100 0.0 10111840
19:00+12sse3724100 0.0 1010437
22:00+8e2235100 0.0 100925